| time (UTC) | temp C | wind direction | speed KPH | gust KPH | rain 1hr cm | rain 24hr cm | rain mn cm | humidity % | barometer mb |
| 20260504042817 | 19 | 261 | 3.2 | 14.5 | 0.00 | 0.00 | 0.00 | 63 | 995.6 |
| 20260504042317 | 19 | 252 | 1.6 | 8.0 | 0.00 | 0.00 | 0.00 | 63 | 995.6 |
| 20260504041815 | 19 | 252 | 3.2 | 8.0 | 0.00 | 0.00 | 0.00 | 63 | 995.6 |
| 20260504041315 | 19 | 254 | 4.8 | 6.4 | 0.00 | 0.00 | 0.00 | 62 | 995.7 |
| 20260504040816 | 19 | 257 | 3.2 | 9.7 | 0.00 | 0.00 | 0.00 | 62 | 995.7 |
| 20260504040315 | 19 | 257 | 3.2 | 11.3 | 0.00 | 0.00 | 0.00 | 62 | 995.7 |
| 20260504035815 | 19 | 259 | 3.2 | 16.1 | 0.00 | 0.00 | 0.00 | 63 | 995.8 |
| 20260504035316 | 19 | 248 | 6.4 | 16.1 | 0.00 | 0.00 | 0.00 | 63 | 995.7 |
| 20260504035047 | 17 | 255 | 4.8 | 6.4 | 0.00 | 0.00 | 0.00 | 69 | 995.8 |
| 20260504034548 | 17 | 255 | 4.8 | 9.7 | 0.00 | 0.00 | 0.00 | 69 | 995.9 |
| 20260504033815 | 17 | 257 | 4.8 | 9.7 | 0.00 | 0.00 | 0.00 | 71 | 995.9 |
| 20260504033315 | 16 | 80 | 0.0 | 0.0 | 0.00 | 0.00 | 0.00 | 74 | 995.9 |
| 20260504033045 | 16 | 80 | 0.0 | 0.0 | 0.00 | 0.00 | 0.00 | 74 | 996.0 |
| 20260504032314 | 16 | 80 | 0.0 | 0.0 | 0.00 | 0.00 | 0.00 | 75 | 995.9 |
| 20260504031814 | 16 | 80 | 0.0 | 0.0 | 0.00 | 0.00 | 0.00 | 74 | 995.9 |
| 20260504031314 | 16 | 80 | 0.0 | 0.0 | 0.00 | 0.00 | 0.00 | 75 | 996.0 |
| 20260504030814 | 16 | 80 | 0.0 | 0.0 | 0.00 | 0.00 | 0.00 | 74 | 995.9 |
| 20260504030313 | 16 | 80 | 0.0 | 0.0 | 0.00 | 0.00 | 0.00 | 73 | 995.9 |
| 20260504025814 | 16 | 80 | 0.0 | 0.0 | 0.00 | 0.00 | 0.00 | 73 | 995.9 |
| 20260504025313 | 16 | 80 | 0.0 | 0.0 | 0.00 | 0.00 | 0.00 | 73 | 995.9 |
| 20260504024813 | 16 | 80 | 0.0 | 0.0 | 0.00 | 0.00 | 0.00 | 74 | 995.9 |
| 20260504024312 | 16 | 80 | 0.0 | 0.0 | 0.00 | 0.00 | 0.00 | 73 | 995.9 |
| 20260504023812 | 16 | 80 | 0.0 | 0.0 | 0.00 | 0.00 | 0.00 | 74 | 995.9 |
| 20260504023313 | 16 | 80 | 0.0 | 0.0 | 0.00 | 0.00 | 0.00 | 73 | 995.9 |
| 20260504023041 | 16 | 80 | 0.0 | 0.0 | 0.00 | 0.00 | 0.00 | 74 | 995.8 |
| 20260504022313 | 16 | 80 | 0.0 | 0.0 | 0.00 | 0.00 | 0.00 | 73 | 995.8 |
| 20260504021811 | 16 | 80 | 0.0 | 0.0 | 0.00 | 0.00 | 0.00 | 73 | 995.8 |
| 20260504021312 | 16 | 80 | 0.0 | 0.0 | 0.00 | 0.00 | 0.00 | 72 | 995.8 |
| 20260504020812 | 16 | 80 | 0.0 | 0.0 | 0.00 | 0.00 | 0.00 | 70 | 995.7 |
| 20260504020310 | 16 | 80 | 0.0 | 0.0 | 0.00 | 0.00 | 0.00 | 70 | 995.7 |
| 20260504015810 | 17 | 155 | 0.0 | 0.0 | 0.00 | 0.00 | 0.00 | 70 | 995.7 |
| 20260504015310 | 17 | 196 | 0.0 | 0.0 | 0.00 | 0.00 | 0.00 | 69 | 995.7 |
| 20260504014810 | 17 | 196 | 0.0 | 0.0 | 0.00 | 0.00 | 0.00 | 68 | 995.6 |
| 20260504014541 | 18 | 196 | 0.0 | 0.0 | 0.00 | 0.00 | 0.00 | 66 | 995.6 |
| 20260504013810 | 18 | 196 | 0.0 | 0.0 | 0.00 | 0.00 | 0.00 | 64 | 995.6 |
| 20260504013310 | 20 | 251 | 0.0 | 0.0 | 0.00 | 0.00 | 0.00 | 58 | 995.4 |
| 20260504012810 | 20 | 251 | 0.0 | 0.0 | 0.00 | 0.00 | 0.00 | 58 | 995.5 |
| 20260504012308 | 20 | 251 | 0.0 | 4.8 | 0.00 | 0.00 | 0.00 | 58 | 995.5 |
| 20260504011808 | 20 | 251 | 0.0 | 4.8 | 0.00 | 0.00 | 0.00 | 56 | 995.4 |
| 20260504011309 | 20 | 251 | 0.0 | 1.6 | 0.00 | 0.00 | 0.00 | 56 | 995.5 |
| 20260504010808 | 21 | 243 | 1.6 | 4.8 | 0.00 | 0.00 | 0.00 | 55 | 995.3 |
| 20260504010308 | 21 | 243 | 1.6 | 6.4 | 0.00 | 0.00 | 0.00 | 55 | 995.3 |
| 20260504005807 | 21 | 243 | 1.6 | 6.4 | 0.00 | 0.00 | 0.00 | 54 | 995.4 |
| 20260504005539 | 21 | 243 | 3.2 | 6.4 | 0.00 | 0.00 | 0.00 | 53 | 995.2 |
| 20260504004809 | 22 | 243 | 1.6 | 4.8 | 0.00 | 0.00 | 0.00 | 53 | 995.2 |
| 20260504004307 | 22 | 243 | 0.0 | 4.8 | 0.00 | 0.00 | 0.00 | 52 | 995.3 |
| 20260504003808 | 22 | 243 | 3.2 | 9.7 | 0.00 | 0.00 | 0.00 | 50 | 995.2 |
| 20260504003307 | 22 | 230 | 6.4 | 9.7 | 0.00 | 0.00 | 0.00 | 50 | 995.3 |
| 20260504002806 | 22 | 240 | 6.4 | 8.0 | 0.00 | 0.00 | 0.00 | 49 | 995.2 |
| 20260504002537 | 22 | 247 | 6.4 | 9.7 | 0.00 | 0.00 | 0.00 | 49 | 995.3 |
| 20260504001807 | 22 | 244 | 6.4 | 14.5 | 0.00 | 0.00 | 0.00 | 49 | 995.4 |
| 20260504001307 | 23 | 230 | 6.4 | 14.5 | 0.00 | 0.00 | 0.00 | 48 | 995.3 |
| 20260504000806 | 23 | 262 | 8.0 | 14.5 | 0.00 | 0.00 | 0.00 | 48 | 995.4 |
| 20260504000535 | 23 | 220 | 6.4 | 19.3 | 0.00 | 0.00 | 0.00 | 47 | 995.4 |
| 20260503235806 | 23 | 245 | 11.3 | 19.3 | 0.00 | 0.00 | 0.00 | 46 | 995.4 |
| 20260503235305 | 23 | 254 | 6.4 | 11.3 | 0.00 | 0.00 | 0.00 | 47 | 995.3 |
| 20260503234806 | 23 | 268 | 8.0 | 17.7 | 0.00 | 0.00 | 0.00 | 46 | 995.4 |
| 20260503234307 | 23 | 262 | 11.3 | 17.7 | 0.00 | 0.00 | 0.00 | 45 | 995.3 |
| 20260503233805 | 23 | 254 | 11.3 | 20.9 | 0.00 | 0.00 | 0.00 | 46 | 995.4 |
| 20260503233308 | 23 | 234 | 12.9 | 20.9 | 0.00 | 0.00 | 0.00 | 44 | 995.5 |
| 20260503232804 | 23 | 223 | 11.3 | 20.9 | 0.00 | 0.00 | 0.00 | 44 | 995.5 |
| 20260503232305 | 23 | 224 | 12.9 | 25.7 | 0.00 | 0.00 | 0.00 | 45 | 995.5 |
| 20260503231804 | 23 | 254 | 11.3 | 25.7 | 0.00 | 0.00 | 0.00 | 44 | 995.5 |
| 20260503231305 | 23 | 259 | 8.0 | 22.5 | 0.00 | 0.00 | 0.00 | 44 | 995.6 |
| 20260503230806 | 23 | 250 | 6.4 | 19.3 | 0.00 | 0.00 | 0.00 | 43 | 995.7 |
| 20260503230304 | 23 | 254 | 11.3 | 20.9 | 0.00 | 0.00 | 0.00 | 43 | 995.7 |
| 20260503225805 | 23 | 231 | 9.7 | 24.1 | 0.00 | 0.00 | 0.00 | 43 | 995.8 |
| 20260503225305 | 23 | 257 | 9.7 | 29.0 | 0.00 | 0.00 | 0.00 | 42 | 995.8 |
| 20260503224805 | 23 | 235 | 16.1 | 29.0 | 0.00 | 0.00 | 0.00 | 42 | 995.9 |
| 20260503224304 | 23 | 266 | 11.3 | 17.7 | 0.00 | 0.00 | 0.00 | 42 | 995.9 |
| 20260503223805 | 23 | 262 | 9.7 | 20.9 | 0.00 | 0.00 | 0.00 | 42 | 996.0 |
| 20260503223305 | 23 | 262 | 11.3 | 20.9 | 0.00 | 0.00 | 0.00 | 41 | 996.1 |
| 20260503222805 | 23 | 243 | 14.5 | 17.7 | 0.00 | 0.00 | 0.00 | 41 | 996.1 |
| 20260503222304 | 23 | 243 | 14.5 | 22.5 | 0.00 | 0.00 | 0.00 | 41 | 996.2 |
| 20260503221803 | 23 | 255 | 12.9 | 25.7 | 0.00 | 0.00 | 0.00 | 41 | 996.2 |
| 20260503221535 | 23 | 252 | 17.7 | 25.7 | 0.00 | 0.00 | 0.00 | 40 | 996.3 |
| 20260503221033 | 23 | 275 | 9.7 | 16.1 | 0.00 | 0.00 | 0.00 | 41 | 996.5 |
| 20260503220304 | 23 | 237 | 14.5 | 22.5 | 0.00 | 0.00 | 0.00 | 40 | 996.4 |
| 20260503215802 | 23 | 237 | 14.5 | 25.7 | 0.00 | 0.00 | 0.00 | 40 | 996.5 |
| 20260503215304 | 23 | 250 | 16.1 | 25.7 | 0.00 | 0.00 | 0.00 | 39 | 996.6 |
| 20260503214801 | 23 | 247 | 16.1 | 24.1 | 0.00 | 0.00 | 0.00 | 40 | 996.7 |
| 20260503214301 | 23 | 210 | 9.7 | 24.1 | 0.00 | 0.00 | 0.00 | 39 | 996.7 |
| 20260503214032 | 23 | 271 | 14.5 | 22.5 | 0.00 | 0.00 | 0.00 | 39 | 996.8 |
| 20260503213301 | 23 | 247 | 9.7 | 25.7 | 0.00 | 0.00 | 0.00 | 40 | 996.7 |
| 20260503212800 | 23 | 230 | 11.3 | 25.7 | 0.00 | 0.00 | 0.00 | 39 | 996.8 |
| 20260503212300 | 23 | 221 | 6.4 | 22.5 | 0.00 | 0.00 | 0.00 | 41 | 996.9 |
| 20260503211800 | 23 | 247 | 9.7 | 22.5 | 0.00 | 0.00 | 0.00 | 39 | 997.0 |
| 20260503211302 | 23 | 237 | 16.1 | 24.1 | 0.00 | 0.00 | 0.00 | 39 | 997.1 |
| 20260503210800 | 23 | 245 | 6.4 | 24.1 | 0.00 | 0.00 | 0.00 | 39 | 997.2 |
| 20260503210301 | 23 | 240 | 11.3 | 19.3 | 0.00 | 0.00 | 0.00 | 40 | 997.3 |
| 20260503205759 | 23 | 255 | 9.7 | 19.3 | 0.00 | 0.00 | 0.00 | 39 | 997.3 |
| 20260503205300 | 23 | 255 | 11.3 | 20.9 | 0.00 | 0.00 | 0.00 | 39 | 997.4 |
| 20260503204800 | 23 | 206 | 11.3 | 20.9 | 0.00 | 0.00 | 0.00 | 39 | 997.5 |
| 20260503204533 | 23 | 268 | 6.4 | 17.7 | 0.00 | 0.00 | 0.00 | 39 | 997.6 |
| 20260503203802 | 23 | 247 | 11.3 | 16.1 | 0.00 | 0.00 | 0.00 | 40 | 997.7 |
| 20260503203259 | 23 | 259 | 6.4 | 19.3 | 0.00 | 0.00 | 0.00 | 39 | 997.9 |
| 20260503202757 | 23 | 221 | 9.7 | 29.0 | 0.00 | 0.00 | 0.00 | 39 | 997.9 |
| 20260503202258 | 23 | 252 | 6.4 | 29.0 | 0.00 | 0.00 | 0.00 | 39 | 997.9 |
| 20260503201759 | 23 | 245 | 14.5 | 24.1 | 0.00 | 0.00 | 0.00 | 40 | 998.0 |
| 20260503201258 | 23 | 247 | 12.9 | 24.1 | 0.00 | 0.00 | 0.00 | 39 | 998.1 |
| 20260503201033 | 22 | 252 | 12.9 | 20.9 | 0.00 | 0.00 | 0.00 | 40 | 998.3 |
| 20260503200258 | 23 | 265 | 11.3 | 20.9 | 0.00 | 0.00 | 0.00 | 41 | 998.3 |
| 20260503195759 | 22 | 250 | 14.5 | 30.6 | 0.00 | 0.00 | 0.00 | 39 | 998.4 |
| 20260503195259 | 22 | 251 | 16.1 | 30.6 | 0.00 | 0.00 | 0.00 | 39 | 998.7 |
| 20260503194757 | 22 | 255 | 11.3 | 19.3 | 0.00 | 0.00 | 0.00 | 40 | 998.8 |
| 20260503194259 | 22 | 272 | 11.3 | 25.7 | 0.00 | 0.00 | 0.00 | 41 | 998.9 |
| 20260503193758 | 22 | 252 | 16.1 | 25.7 | 0.00 | 0.00 | 0.00 | 39 | 999.0 |
| 20260503193258 | 22 | 217 | 11.3 | 19.3 | 0.00 | 0.00 | 0.00 | 42 | 999.1 |
| 20260503192757 | 22 | 285 | 12.9 | 19.3 | 0.00 | 0.00 | 0.00 | 41 | 999.3 |
| 20260503192258 | 22 | 240 | 9.7 | 24.1 | 0.00 | 0.00 | 0.00 | 42 | 999.3 |
| 20260503191758 | 22 | 264 | 14.5 | 24.1 | 0.00 | 0.00 | 0.00 | 40 | 999.3 |
| 20260503191258 | 22 | 259 | 9.7 | 20.9 | 0.00 | 0.00 | 0.00 | 41 | 999.5 |
| 20260503191029 | 21 | 234 | 12.9 | 20.9 | 0.00 | 0.00 | 0.00 | 40 | 999.7 |
| 20260503190527 | 21 | 258 | 12.9 | 20.9 | 0.00 | 0.00 | 0.00 | 40 | 999.7 |
| 20260503185800 | 21 | 276 | 8.0 | 17.7 | 0.00 | 0.00 | 0.00 | 41 | 999.8 |
| 20260503185257 | 21 | 262 | 9.7 | 17.7 | 0.00 | 0.00 | 0.00 | 41 | 1000.0 |
| 20260503184758 | 21 | 227 | 8.0 | 16.1 | 0.00 | 0.00 | 0.00 | 42 | 1000.0 |
| 20260503184257 | 21 | 244 | 6.4 | 19.3 | 0.00 | 0.00 | 0.00 | 44 | 1000.2 |
| 20260503183757 | 21 | 271 | 6.4 | 19.3 | 0.00 | 0.00 | 0.00 | 43 | 1000.3 |
| 20260503183256 | 21 | 254 | 4.8 | 20.9 | 0.00 | 0.00 | 0.00 | 44 | 1000.4 |
| 20260503182758 | 21 | 223 | 11.3 | 20.9 | 0.00 | 0.00 | 0.00 | 42 | 1000.5 |
| 20260503182256 | 20 | 240 | 3.2 | 17.7 | 0.00 | 0.00 | 0.00 | 46 | 1000.7 |
| 20260503181757 | 20 | 212 | 11.3 | 17.7 | 0.00 | 0.00 | 0.00 | 44 | 1000.8 |
| 20260503181527 | 20 | 288 | 8.0 | 19.3 | 0.00 | 0.00 | 0.00 | 44 | 1000.9 |
| 20260503180756 | 20 | 257 | 11.3 | 19.3 | 0.00 | 0.00 | 0.00 | 45 | 1001.0 |
| 20260503180256 | 20 | 245 | 6.4 | 20.9 | 0.00 | 0.00 | 0.00 | 45 | 1001.0 |
| 20260503175755 | 20 | 248 | 9.7 | 20.9 | 0.00 | 0.00 | 0.00 | 45 | 1001.2 |
| 20260503175255 | 20 | 266 | 4.8 | 22.5 | 0.00 | 0.00 | 0.00 | 45 | 1001.3 |
| 20260503174755 | 20 | 257 | 12.9 | 22.5 | 0.00 | 0.00 | 0.00 | 45 | 1001.4 |
| 20260503174255 | 20 | 219 | 8.0 | 19.3 | 0.00 | 0.00 | 0.00 | 46 | 1001.4 |
| 20260503173756 | 20 | 255 | 6.4 | 19.3 | 0.00 | 0.00 | 0.00 | 45 | 1001.6 |
| 20260503173255 | 20 | 247 | 11.3 | 19.3 | 0.00 | 0.00 | 0.00 | 45 | 1001.6 |
| 20260503173028 | 20 | 244 | 4.8 | 19.3 | 0.00 | 0.00 | 0.00 | 47 | 1001.7 |
| 20260503172256 | 20 | 233 | 4.8 | 19.3 | 0.00 | 0.00 | 0.00 | 47 | 1001.9 |
| 20260503171756 | 19 | 73 | 8.0 | 11.3 | 0.00 | 0.00 | 0.00 | 49 | 1001.9 |
| 20260503171254 | 19 | 73 | 8.0 | 11.3 | 0.00 | 0.00 | 0.00 | 49 | 1002.1 |
| 20260503170755 | 19 | 261 | 9.7 | 11.3 | 0.00 | 0.00 | 0.00 | 49 | 1002.1 |
| 20260503170253 | 18 | 306 | 6.4 | 24.1 | 0.00 | 0.00 | 0.00 | 49 | 1002.1 |
| 20260503150750 | 16 | 257 | 14.5 | 25.7 | 0.00 | 0.00 | 0.00 | 54 | 1003.4 |
| 20260503150248 | 15 | 228 | 14.5 | 27.4 | 0.00 | 0.00 | 0.00 | 55 | 1003.5 |
| 20260503140248 | 10 | 219 | 3.2 | 4.8 | 0.00 | 0.00 | 0.00 | 88 | 1004.1 |
| 20260503131247 | 5 | 223 | 0.0 | 3.2 | 0.00 | 0.00 | 0.00 | 95 | 1004.2 |
| 20260503130747 | 5 | 223 | 0.0 | 3.2 | 0.00 | 0.00 | 0.00 | 95 | 1004.3 |
| 20260503130247 | 5 | 223 | 0.0 | 1.6 | 0.00 | 0.00 | 0.00 | 95 | 1004.2 |
| 20260503110741 | 3 | 63 | 0.0 | 3.2 | 0.00 | 0.00 | 0.00 | 92 | 1003.6 |
| 20260503110514 | 3 | 63 | 0.0 | 3.2 | 0.00 | 0.00 | 0.00 | 92 | 1003.6 |
| 20260503100240 | 3 | 63 | 0.0 | 0.0 | 0.00 | 0.00 | 0.00 | 92 | 1003.7 |
| 20260503090238 | 3 | 63 | 0.0 | 0.0 | 0.00 | 0.00 | 0.00 | 91 | 1003.7 |
| 20260503081233 | 3 | 63 | 0.0 | 0.0 | 0.00 | 0.00 | 0.00 | 90 | 1003.8 |
| 20260503080734 | 3 | 63 | 0.0 | 0.0 | 0.00 | 0.00 | 0.00 | 90 | 1003.9 |
| 20260503080234 | 3 | 63 | 0.0 | 0.0 | 0.00 | 0.00 | 0.00 | 90 | 1003.8 |
| 20260503072733 | 3 | 63 | 0.0 | 0.0 | 0.00 | 0.00 | 0.00 | 89 | 1003.9 |
| 20260503072233 | 3 | 63 | 0.0 | 0.0 | 0.00 | 0.00 | 0.00 | 89 | 1004.0 |
| 20260503072003 | 3 | 63 | 0.0 | 0.0 | 0.00 | 0.00 | 0.00 | 89 | 1003.9 |
| 20260503071233 | 3 | 63 | 0.0 | 0.0 | 0.00 | 0.00 | 0.00 | 89 | 1004.1 |
| 20260503070730 | 4 | 63 | 0.0 | 1.6 | 0.00 | 0.00 | 0.00 | 88 | 1004.0 |
| 20260503070231 | 4 | 63 | 0.0 | 1.6 | 0.00 | 0.00 | 0.00 | 88 | 1004.0 |
| 20260503054730 | 5 | 63 | 0.0 | 0.0 | 0.00 | 0.00 | 0.00 | 86 | 1004.1 |
| 20260503054232 | 5 | 63 | 0.0 | 0.0 | 0.00 | 0.00 | 0.00 | 86 | 1004.1 |
| 20260503053731 | 5 | 63 | 0.0 | 3.2 | 0.00 | 0.00 | 0.00 | 86 | 1004.0 |
| 20260503053230 | 5 | 63 | 0.0 | 3.2 | 0.00 | 0.00 | 0.00 | 86 | 1004.0 |
| 20260503053001 | 5 | 63 | 0.0 | 0.0 | 0.00 | 0.00 | 0.00 | 85 | 1004.0 |
| 20260503052230 | 5 | 63 | 0.0 | 0.0 | 0.00 | 0.00 | 0.00 | 85 | 1003.9 |
| 20260503051730 | 5 | 63 | 0.0 | 0.0 | 0.00 | 0.00 | 0.00 | 85 | 1003.8 |
| 20260503051229 | 5 | 63 | 0.0 | 0.0 | 0.00 | 0.00 | 0.00 | 85 | 1003.9 |
| 20260503050729 | 5 | 63 | 0.0 | 0.0 | 0.00 | 0.00 | 0.00 | 85 | 1003.9 |
| 20260503050504 | 5 | 63 | 0.0 | 0.0 | 0.00 | 0.00 | 0.00 | 85 | 1003.8 |
| 20260503045730 | 6 | 63 | 0.0 | 1.6 | 0.00 | 0.00 | 0.00 | 84 | 1003.8 |
| 20260503045228 | 6 | 63 | 0.0 | 3.2 | 0.00 | 0.00 | 0.00 | 84 | 1003.6 |
| 20260503044729 | 6 | 63 | 0.0 | 3.2 | 0.00 | 0.00 | 0.00 | 84 | 1003.6 |
| 20260503044230 | 6 | 63 | 0.0 | 3.2 | 0.00 | 0.00 | 0.00 | 84 | 1003.6 |
| 20260503043729 | 6 | 63 | 0.0 | 3.2 | 0.00 | 0.00 | 0.00 | 84 | 1003.6 |
| 20260503043230 | 6 | 63 | 0.0 | 3.2 | 0.00 | 0.00 | 0.00 | 83 | 1003.6 |